Погода в Конотопе

Погода в Конотопе : погода сейчас, прогноз погоды и архив. Всё, что Вы хотите узнать о погоде в Конотопе!

Хотите узнать прогноз погоды в Конотопе? Тогда Вам сюда: Погода в Конотопе

Поиск расширенной информации на нашем сайте:

Другие новости

Новости СМИ2

Главная страница сайта

Новости сайта

03.07.2017

Напоминаем, что на нашем специализированном сайте Метеоцентр.Азия вы можете получить высокодетализированные автоматические прогнозы погоды по пунктам России, СНГ и мира в авиационном формате (включающие направление и скорость ветра, видимость, явления погоды, количество и форму облачности, нижнюю и верхнюю границу облачности).


Погода в Конотопе - сегодня

Время (UTC), дата Ветер
(°,м/с) 
Видим.   Явления Облачность Т
(°С)
Тd
(°С)
f(%) Тe
(°С)
Pmin
(гПа)
dP
(гПа)
Po
(мм)
O2
(г/м3)
Тmin Tmax R s Состояние
почвы
15 09.12.17 160 (Ю) 4000 м  дымка{морось}  10/10 360 м 
[St]
+1.1 +0.3 94 +2  1010.7  -0.4  744  299           
18 09.12.17 150 (ЮВ) 4000 м  дымка{морось}  10/10 300 м 
[St]
+0.8 +0.3 96 -1  1010.2  -0.5  744  299    +1.5  0.0     
21 09.12.17 150 (ЮВ) 2000 м  дымка  10/10 210 м 
[St]
+1.8 +1.3 96 1009.2  -0.9  743  297           
00 10.12.17 110 (В) 0500 м  туман  ?/?  
+1.3 +1.3 100 +1  1008  -1.3  742  297           
03 10.12.17 120 (ЮВ) 0500 м  туман{морось}  ?/?  
+2.6 +2.6 100 +1  1006.1  -1.7  741  295           
06 10.12.17 130 (ЮВ) 0700 м  туман{морось}  ?/?  
+3.6 +3.6 100 +2  1004.1  -1.9  739  293  +0.7    0.0     
09 10.12.17 150 (ЮВ) 4000 м  дымка{туман}  10/8 240 м средняя 
[Frnb|As trans]
+6 +5.5 97 +5  1002.9  -1  739  290           
12 10.12.17 130 (ЮВ) 2000 м  слаб. дождь{туман}  10/9 100 м средняя 
[Frnb|As op]
+6.8 +6.4 97 +5  1000.1  -2.7  737  289      0.3     
15 10.12.17 120 (ЮВ) 2000 м  слаб. дождь  10/9 180 м средняя 
[Frnb|As op]
+6.8 +6.4 97 +6  998.1  -2  735  288           
18 10.12.17 130 (ЮВ) 4000 м  слаб. дождь  10/9 300 м средняя 
[Frnb|As op]
+8 +7.1 94 +6  994.1  -3.8  732  285    +8.4  10     
21 10.12.17 170 (Ю) 10 км  {дождь}  10/5 300 м средняя 
[Frnb|Ac As]
+6.5 +4.2 85 +5  995.3  733  288           
00 11.12.17 280 (З) 4000 м  слаб. ливневой дождь со снегом  10/10 300 м кучево-дожд. 
[Cb cap]
+1.2 +0.4 94 999  3.3  736  295         
03 11.12.17 270 (З) 4000 м  слаб. ливневой снег  10/10 330 м кучево-дожд. 
[Cb cap]
-0.7 -2 91 -4  1003.8  4.6  739  299           
06 11.12.17 250 (З) 10 км  {ливн. осадки}  9/4 300 м кучево-дожд., средняя, верхняя 
[Cb cap|Ac trans|Ci fib]
-1.4 -3.4 86 -4  1008.9  4.9  743  301  -1.5    равномерный
мокрый или
старый снег
100% 
09 11.12.17 190 (Ю) 10 км    9/0 средняя, верхняя 
[Ac trans|Ci fib]
-0.6 -3.7 80 -1  1010.1  1.3  744  301           
12 11.12.17 190 (Ю) 10 км    9/0 средняя 
[Ac trans]
+0 -3.3 78 -2  1010.6  0.5  744  300           
15 11.12.17 200 (Ю) 10 км    9/0 средняя 
[Ac trans]
-0.1 -2.4 84 -2  1012.1  1.5  745  301           
18 11.12.17 180 (Ю) 2000 м  слаб. ливневой снег  10/10 300 м кучево-дожд. 
[Cb cap]
-0.4 -1 96 -1  1013  0.8  746  301    +0.4     
21 11.12.17 150 (ЮВ) 4000 м  дымка{ливн. осадки}  9/0 средняя 
[Ac trans]
+0.3 -1 91 1012.2  -0.7  745  300           
00 12.12.17 130 (ЮВ) 4000 м  дымка{ливн. осадки}  9/0 средняя 
[Ac trans]
+0 -1.1 92 -1  1012  -0.2  745  300      0.0     
03 12.12.17 150 (ЮВ) 10 км    10/0 средняя 
[Ac und]
+0.8 -0.9 88 1011.8  -0.2  745  299           
06 12.12.17 140 (ЮВ) 10 км    9/0 средняя 
[Ac trans]
+1.4 -0.3 88 +1  1011.3  -0.4  745  298  -0.4    0.0  мокрый или
старый снег
50-90% 
09 12.12.17 160 (Ю) 10 км    9/0 средняя, верхняя 
[Ac trans|Ci fib]
+3.6 +1 83 +3  1011.4  0.2  745  296           
12 12.12.17 170 (Ю) 10 км    9/5 1500 м средняя, верхняя 
[Sc|Ac trans|Ci fib]
+5.4 +1.1 74 +5  1010.4  -0.8  744  294           
15 12.12.17 190 (Ю) 10 км    9/3 1500 м средняя 
[Sc|Ac trans]
+4.8 +2.6 86 +4  1011.5  745  295           
Время (UTC), дата Ветер
(°,м/с) 
Видим.   Явления Облачность Т
(°С)
Тd
(°С)
f(%) Тe
(°С)
Pmin
(гПа)
dP
(гПа)
Po
(мм)
O2
(г/м3)
Тmin Tmax R s Состояние
почвы

Для получения пояснительной информации подведите курсор к названию столбца.

ПОГОДА в Конотопе - архив

Всё, что Вы хотите узнать о погоде в Конотопе - удобно и подробно!

Выберите нужную дату (начиная с 1 января 2015* года) и нажмите кнопку "Найти".
Будут отображены архивные сводки погоды по пункту Конотоп, начиная с указанной даты.


Отображать данные в формате CSV (для использования в таблицах Excel)


Внимание! Наш архив погоды предназначен исключительно для личного некоммерческого использования в познавательных целях. Если Вам необходимы официальные справки о состоянии погоды (для производственных, юридических, коммерческих и т.п. целей), обращайтесь в органы Росгидромета.

*Примечание: данная дата относится к архиву по метеостанциям СССР (Россия, СНГ, Балтия).
Архив по метеостанциям Зарубежной Европы и Азии (кроме Китая) хранится 10 дней, по другим регионам земного шара (Китай, Африка, Америка, Австралия, Океания) - 1 день.

Конотоп - район местоположения метеостанции


Название, широта, долгота, высота метеостанции:
Конотоп 51.2°ш. 33.2°д. 149 м над ур. моря [Украина]

Дополнительная информация

В oтличие oт бoльшинства пoгoдных сайтoв мы публикуем пoдрoбную метеoинфoрмацию в детальнoм прoфессиoнальнoм фoрмате.

Характеристики температуры и влажнoсти вoздуха измеряются на высoте 2 м в тени вдали oт зданий и деревьев.
Скoрoсть ветра измеряется на высoте 10 м (на урoвне рoста челoвека скoрoсть ветра ниже в 1.5-2 раза). Если метеoстанция нахoдится в гoрoде или в лесу, тo скoрoсть ветра занижена на 2-4 м/с пo сравнению с oткрытым местoм. Скoрoсть ветра над акватoриями крупных рек и oзёр, а также на вершинах хoлмoв на 2-5 м/с выше, чем в oбычных услoвиях.
Атмoсфернoе давление в разных тoчках местнoсти мoжет значительнo oтличаться oт давления на метеoстанции, в зависимoсти oт услoвий рельефа (при пoдъёме на 10 м давление пoнижается примернo на 1 мм рт.ст.).